Location: Mouss�
(47.9236°N, 1.2701°W)
Time: 06:25:27
(UTC+00:00)

H-2A R/B - Pass Details

Date: 03 March 2021
Orbit: 577 x 654 km, 98.5° (Epoch: 12 April)

Event Time Altitude Azimuth Distance (km) Brightness Sun altitude
Rises 18:31:01 0° 7° (N) 2,808 5.3 -7.2°
Reaches altitude 10° 18:33:17 10° 359° (N) 1,902 4.6 -7.6°
Maximum altitude 18:37:05 37° 292° (WNW) 906 3.6 -8.2°
Drops below altitude 10° 18:40:52 10° 225° (SW) 1,895 5.2 -8.8°
Sets 18:43:07 0° 217° (SW) 2,796 6.0 -9.2°
